CW1620 Weather Reports


time (UTC)temp
F
wind
direction
speed
knots
gust
knots
rain 1hr
in
rain 24hr
in
rain mn
in
humidity
%
barometer
mb
20260504050017 48 0.0 0.0 0.00 0.00 0.00 67 1015.6
20260504045017 48 0.0 0.0 0.00 0.00 0.00 63 1015.5
20260504044017 48 0.0 0.0 0.00 0.00 0.00 63 1015.6
20260504043018 48 0.0 0.0 0.00 0.00 0.00 64 1015.5
20260504042017 48 0.0 0.0 0.00 0.00 0.00 65 1015.4
20260504041017 48 0.0 0.0 0.00 0.00 0.00 64 1015.3
20260504040018 48 0.0 0.0 0.00 0.00 0.00 65 1015.2
20260504035036 48 0.0 0.0 0.00 0.00 0.00 63 1015.1
20260504034017 48 0.0 0.0 0.00 0.00 0.00 65 1015.0
20260504033016 48 0.0 0.0 0.00 0.00 0.00 64 1014.9
20260504032036 48 0.0 0.0 0.00 0.00 0.00 64 1015.0
20260504031016 48 0.0 0.0 0.00 0.00 0.00 64 1014.8
20260504030016 48 0.0 0.0 0.00 0.00 0.00 64 1014.9
20260504025016 49 0.0 0.0 0.00 0.00 0.00 63 1014.9
20260504024016 49 0.0 0.0 0.00 0.00 0.00 63 1014.7
20260504023036 49 0.0 0.0 0.00 0.00 0.00 63 1014.7
20260504022016 49 0.0 0.0 0.00 0.00 0.00 63 1014.7
20260504021017 49 0.0 0.0 0.00 0.00 0.00 63 1014.8
20260504020016 49 0.0 0.0 0.00 0.00 0.00 64 1014.7
20260504015016 49 0.0 0.0 0.00 0.00 0.00 64 1014.8
20260504014016 50 0.0 0.0 0.00 0.00 0.00 64 1014.7
20260504013016 50 0.0 0.0 0.00 0.00 0.00 61 1014.6
20260504012017 50 0.0 0.0 0.00 0.00 0.00 62 1014.4
20260504011016 51 0.0 0.0 0.00 0.00 0.00 62 1014.4
20260504010016 51 0.0 0.0 0.00 0.00 0.00 60 1014.4
20260504005016 52 0.0 0.0 0.00 0.00 0.00 58 1014.3
20260504004016 52 0.0 0.0 0.00 0.00 0.00 58 1014.2
20260504003016 53 0.0 0.0 0.00 0.00 0.00 56 1014.1
20260504002016 54 0.0 0.0 0.00 0.00 0.00 55 1014.0
20260504001016 55 0.0 0.0 0.00 0.00 0.00 55 1014.0
20260504000038 56 0.0 0.0 0.00 0.00 0.00 52 1013.8
20260503235016 57 0.0 0.0 0.00 0.00 0.00 47 1013.6
20260503234016 57 0.0 0.0 0.00 0.00 0.00 46 1013.5
20260503233015 58 0.0 0.0 0.00 0.00 0.00 45 1013.5
20260503232016 58 0.0 0.0 0.00 0.00 0.00 44 1013.5
20260503231015 59 0.0 0.0 0.00 0.00 0.00 44 1013.5
20260503230016 59 0.0 0.0 0.00 0.00 0.00 44 1013.6
20260503225016 60 0.0 0.0 0.00 0.00 0.00 40 1013.5
20260503224036 60 0.0 0.0 0.00 0.00 0.00 41 1013.5
20260503223016 61 0.0 0.0 0.00 0.00 0.00 38 1013.5
20260503222015 62 0.0 0.0 0.00 0.00 0.00 35 1013.6
20260503221016 62 0.0 0.0 0.00 0.00 0.00 37 1013.5
20260503220016 61 0.0 0.0 0.00 0.00 0.00 38 1013.4
20260503215036 62 0.0 0.0 0.00 0.00 0.00 39 1013.5
20260503214036 62 0.0 0.0 0.00 0.00 0.00 39 1013.4
20260503213018 63 0.0 0.0 0.00 0.00 0.00 36 1013.5
20260503212018 64 0.0 0.0 0.00 0.00 0.00 37 1013.5
20260503211037 64 0.0 0.0 0.00 0.00 0.00 35 1013.4
20260503210018 64 0.0 0.0 0.00 0.00 0.00 34 1013.5
20260503205017 64 0.0 0.0 0.00 0.00 0.00 35 1013.5
20260503204018 65 0.0 0.0 0.00 0.00 0.00 33 1013.6
20260503203019 64 0.0 0.0 0.00 0.00 0.00 34 1013.5
20260503202038 63 0.0 0.0 0.00 0.00 0.00 38 1013.6
20260503201057 63 0.0 0.0 0.00 0.00 0.00 36 1013.7
20260503200017 63 0.0 0.0 0.00 0.00 0.00 36 1013.8
20260503195017 63 0.0 0.0 0.00 0.00 0.00 36 1013.8
20260503194017 62 0.0 0.9 0.00 0.00 0.00 37 1013.9
20260503193037 62 0.0 0.0 0.00 0.00 0.00 38 1014.0
20260503192017 62 0.0 0.0 0.00 0.00 0.00 39 1014.1
20260503191017 62 0.0 0.0 0.00 0.00 0.00 38 1014.2
20260503190037 61 0.0 0.0 0.00 0.00 0.00 38 1014.3
20260503185057 61 0.0 0.0 0.00 0.00 0.00 38 1014.5
20260503184017 61 0.0 0.0 0.00 0.00 0.00 36 1014.6
20260503183017 61 0.0 0.0 0.00 0.00 0.00 39 1014.7
20260503182017 60 0.0 0.0 0.00 0.00 0.00 41 1014.6
20260503181038 60 0.0 0.0 0.00 0.00 0.00 40 1014.7
20260503180017 60 0.0 0.0 0.00 0.00 0.00 37 1014.8
20260503175017 60 0.0 0.0 0.00 0.00 0.00 39 1014.9
20260503174017 60 0.0 0.0 0.00 0.00 0.00 40 1014.9
20260503173017 59 0.0 0.0 0.00 0.00 0.00 39 1015.0
20260503172017 59 0.0 0.0 0.00 0.00 0.00 40 1014.9
20260503171017 59 0.0 0.0 0.00 0.00 0.00 36 1015.0
20260503131017 49 0.0 0.0 0.00 0.00 0.00 59 1015.5
20260503081016 42 0.0 0.0 0.00 0.00 0.00 78 1012.8
20260503072016 43 0.0 0.0 0.00 0.00 0.00 78 1012.5
20260503071016 43 0.0 0.0 0.00 0.00 0.00 78 1012.4